sat.trackr.live / text

‹ back to catalog

KUIPER-00380

NORAD 68920 · 2026-098B

PAYLOAD ACTIVE UNKNOWN

§ Identity

Operator
Country
US
Launch date
2026-04-30
Launch site
FRGUI
Launch vehicle
Mass (kg)
RCS (m²)

External: N2YO · Heavens-Above · Gunter

§ Orbital elements

Epoch: 2026-09-20T04:37:56.522784Z

Period
97.30 min
Inclination
51.9006°
Eccentricity
0.0000283
Mean motion
14.79933957 rev/d
Perigee alt
629.3 km
Apogee alt
629.7 km
Semi-major
7,007.7 km
B*
1.4076e-4
RAAN
350.5468°
Arg perigee
87.2839°
Mean anomaly
272.8155°
Rev number
2,165

§ Raw data

KUIPER-003801 68920U 26098B   26263.19301531  .00000852  00000+0  14076-3 0  99972 68920  51.9006 350.5468 0000283  87.2839 272.8155 14.79933957 21650

JSON: /api/v1/satellites/68920 · /tle

For live sub-satellite position, see the globe view (requires WebGL).

§ Visibility from observer

Set your observer location to see the next 7 days of passes ≥ 10°. The values pass through the URL so the page stays shareable.

No JS? Fill the form by hand. The geolocation button needs JavaScript.